Year,Month,Day,Hour,Minute,Value (Times are PST for temperature in C)
2020,04,15,00,00,12.90
2020,04,15,00,01,12.90
2020,04,15,00,02,12.90
2020,04,15,00,03,12.80
2020,04,15,00,04,12.80
2020,04,15,00,05,12.90
2020,04,15,00,06,12.80
2020,04,15,00,07,12.90
2020,04,15,00,08,12.90
2020,04,15,00,09,12.90
2020,04,15,00,10,12.90
2020,04,15,00,11,12.90
2020,04,15,00,12,12.90
2020,04,15,00,13,12.90
2020,04,15,00,14,12.90
2020,04,15,00,15,12.90
2020,04,15,00,16,12.80
2020,04,15,00,17,12.80
2020,04,15,00,18,12.80
2020,04,15,00,19,12.80
2020,04,15,00,20,12.70
2020,04,15,00,21,12.70
2020,04,15,00,22,12.70
2020,04,15,00,23,12.70
2020,04,15,00,24,12.70
2020,04,15,00,25,12.60
2020,04,15,00,26,12.60
2020,04,15,00,27,12.60
2020,04,15,00,28,12.60
2020,04,15,00,29,12.60
2020,04,15,00,30,12.60
2020,04,15,00,31,12.60
2020,04,15,00,32,12.60
2020,04,15,00,33,12.60
2020,04,15,00,34,12.60
2020,04,15,00,35,12.60
2020,04,15,00,36,12.60
2020,04,15,00,37,12.60
2020,04,15,00,38,12.60
2020,04,15,00,39,12.60
2020,04,15,00,40,12.50
2020,04,15,00,41,12.50
2020,04,15,00,42,12.50
2020,04,15,00,43,12.50
2020,04,15,00,44,12.40
2020,04,15,00,45,12.40
2020,04,15,00,46,12.40
2020,04,15,00,47,12.40
2020,04,15,00,48,12.40
2020,04,15,00,49,12.40
2020,04,15,00,50,12.40
2020,04,15,00,51,12.30
2020,04,15,00,52,12.30
2020,04,15,00,53,12.30
2020,04,15,00,54,12.30
2020,04,15,00,55,12.30
2020,04,15,00,56,12.30
2020,04,15,00,57,12.30
2020,04,15,00,58,12.30
2020,04,15,00,59,12.30
2020,04,15,01,00,12.30
2020,04,15,01,01,12.30
2020,04,15,01,02,12.30
2020,04,15,01,03,12.30
2020,04,15,01,04,12.30
2020,04,15,01,05,12.30
2020,04,15,01,06,12.30
2020,04,15,01,07,12.30
2020,04,15,01,08,12.30
2020,04,15,01,09,12.30
2020,04,15,01,10,12.30
2020,04,15,01,11,12.30
2020,04,15,01,12,12.30
2020,04,15,01,13,12.30
2020,04,15,01,14,12.30
2020,04,15,01,15,12.30
2020,04,15,01,16,12.30
2020,04,15,01,17,12.30
2020,04,15,01,18,12.30
2020,04,15,01,19,12.30
2020,04,15,01,20,12.30
2020,04,15,01,21,12.30
2020,04,15,01,22,12.30
2020,04,15,01,23,12.30
2020,04,15,01,24,12.30
2020,04,15,01,25,12.30
2020,04,15,01,26,12.30
2020,04,15,01,27,12.20
2020,04,15,01,28,12.20
2020,04,15,01,29,12.20
2020,04,15,01,30,12.30
2020,04,15,01,31,12.30
2020,04,15,01,32,12.30
2020,04,15,01,33,12.30
2020,04,15,01,34,12.30
2020,04,15,01,35,12.30
2020,04,15,01,36,12.20
2020,04,15,01,37,12.20
2020,04,15,01,38,12.20
2020,04,15,01,39,12.30
2020,04,15,01,40,12.30
2020,04,15,01,41,12.30
2020,04,15,01,42,12.30
2020,04,15,01,43,12.30
2020,04,15,01,44,12.20
2020,04,15,01,45,12.20
2020,04,15,01,46,12.20
2020,04,15,01,47,12.20
2020,04,15,01,48,12.20
2020,04,15,01,49,12.20
2020,04,15,01,50,12.20
2020,04,15,01,51,12.20
2020,04,15,01,52,12.20
2020,04,15,01,53,12.20
2020,04,15,01,54,12.10
2020,04,15,01,55,12.10
2020,04,15,01,56,12.10
2020,04,15,01,57,12.10
2020,04,15,01,58,12.10
2020,04,15,01,59,12.10
2020,04,15,02,00,12.10
2020,04,15,02,01,12.10
2020,04,15,02,02,12.10
2020,04,15,02,03,12.10
2020,04,15,02,04,12.10
2020,04,15,02,05,12.10
2020,04,15,02,06,12.10
2020,04,15,02,07,12.10
2020,04,15,02,08,12.10
2020,04,15,02,09,12.10
2020,04,15,02,10,12.10
2020,04,15,02,11,12.00
2020,04,15,02,12,12.00
2020,04,15,02,13,12.00
2020,04,15,02,14,12.00
2020,04,15,02,15,12.00
2020,04,15,02,16,11.90
2020,04,15,02,17,11.90
2020,04,15,02,18,11.90
2020,04,15,02,19,11.90
2020,04,15,02,20,11.90
2020,04,15,02,21,11.90
2020,04,15,02,22,11.80
2020,04,15,02,23,11.80
2020,04,15,02,24,11.80
2020,04,15,02,25,11.80
2020,04,15,02,26,11.80
2020,04,15,02,27,11.80
2020,04,15,02,28,11.80
2020,04,15,02,29,11.80
2020,04,15,02,30,11.80
2020,04,15,02,31,11.80
2020,04,15,02,32,11.80
2020,04,15,02,33,11.80
2020,04,15,02,34,11.70
2020,04,15,02,35,11.70
2020,04,15,02,36,11.70
2020,04,15,02,37,11.70
2020,04,15,02,38,11.70
2020,04,15,02,39,11.70
2020,04,15,02,40,11.70
2020,04,15,02,41,11.60
2020,04,15,02,42,11.60
2020,04,15,02,43,11.60
2020,04,15,02,44,11.60
2020,04,15,02,45,11.60
2020,04,15,02,46,11.50
2020,04,15,02,47,11.50
2020,04,15,02,48,11.50
2020,04,15,02,49,11.50
2020,04,15,02,50,11.50
2020,04,15,02,51,11.50
2020,04,15,02,52,11.40
2020,04,15,02,53,11.40
2020,04,15,02,54,11.40
2020,04,15,02,55,11.30
2020,04,15,02,56,11.30
2020,04,15,02,57,11.30
2020,04,15,02,58,11.20
2020,04,15,02,59,11.20
2020,04,15,03,00,11.20
2020,04,15,03,01,11.20
2020,04,15,03,02,11.20
2020,04,15,03,03,11.10
2020,04,15,03,04,11.10
2020,04,15,03,05,11.10
2020,04,15,03,06,11.10
2020,04,15,03,07,11.10
2020,04,15,03,08,11.10
2020,04,15,03,09,11.00
2020,04,15,03,10,11.00
2020,04,15,03,11,11.00
2020,04,15,03,12,11.00
2020,04,15,03,13,11.00
2020,04,15,03,14,11.00
2020,04,15,03,15,11.00
2020,04,15,03,16,11.00
2020,04,15,03,17,11.00
2020,04,15,03,18,11.00
2020,04,15,03,19,11.00
2020,04,15,03,20,11.00
2020,04,15,03,21,11.00
2020,04,15,03,22,11.00
2020,04,15,03,23,11.00
2020,04,15,03,24,11.00
2020,04,15,03,25,11.00
2020,04,15,03,26,11.00
2020,04,15,03,27,11.00
2020,04,15,03,28,11.00
2020,04,15,03,29,11.00
2020,04,15,03,30,11.00
2020,04,15,03,31,11.00
2020,04,15,03,32,10.90
2020,04,15,03,33,11.00
2020,04,15,03,34,10.90
2020,04,15,03,35,11.00
2020,04,15,03,36,11.00
2020,04,15,03,37,11.00
2020,04,15,03,38,11.00
2020,04,15,03,39,11.00
2020,04,15,03,40,11.00
2020,04,15,03,41,11.00
2020,04,15,03,42,11.00
2020,04,15,03,43,11.00
2020,04,15,03,44,11.00
2020,04,15,03,45,11.00
2020,04,15,03,46,11.00
2020,04,15,03,47,11.00
2020,04,15,03,48,11.00
2020,04,15,03,49,11.00
2020,04,15,03,50,11.00
2020,04,15,03,51,11.00
2020,04,15,03,52,10.90
2020,04,15,03,53,10.90
2020,04,15,03,54,10.90
2020,04,15,03,55,10.90
2020,04,15,03,56,10.90
2020,04,15,03,57,10.90
2020,04,15,03,58,10.90
2020,04,15,03,59,10.90
2020,04,15,04,00,10.90
2020,04,15,04,01,10.80
2020,04,15,04,02,10.80
2020,04,15,04,03,10.80
2020,04,15,04,04,10.80
2020,04,15,04,05,10.80
2020,04,15,04,06,10.80
2020,04,15,04,07,10.80
2020,04,15,04,08,10.80
2020,04,15,04,09,10.80
2020,04,15,04,10,10.80
2020,04,15,04,11,10.80
2020,04,15,04,12,10.80
2020,04,15,04,13,10.80
2020,04,15,04,14,10.80
2020,04,15,04,15,10.80
2020,04,15,04,16,10.80
2020,04,15,04,17,10.80
2020,04,15,04,18,10.80
2020,04,15,04,19,10.80
2020,04,15,04,20,10.80
2020,04,15,04,21,10.80
2020,04,15,04,22,10.80
2020,04,15,04,23,10.80
2020,04,15,04,24,10.80
2020,04,15,04,25,10.80
2020,04,15,04,26,10.80
2020,04,15,04,27,10.80
2020,04,15,04,28,10.80
2020,04,15,04,29,10.80
2020,04,15,04,30,10.70
2020,04,15,04,31,10.70
2020,04,15,04,32,10.70
2020,04,15,04,33,10.70
2020,04,15,04,34,10.60
2020,04,15,04,35,10.60
2020,04,15,04,36,10.60
2020,04,15,04,37,10.60
2020,04,15,04,38,10.60
2020,04,15,04,39,10.60
2020,04,15,04,40,10.60
2020,04,15,04,41,10.50
2020,04,15,04,42,10.50
2020,04,15,04,43,10.50
2020,04,15,04,44,10.50
2020,04,15,04,45,10.50
2020,04,15,04,46,10.50
2020,04,15,04,47,10.50
2020,04,15,04,48,10.50
2020,04,15,04,49,10.50
2020,04,15,04,50,10.40
2020,04,15,04,51,10.40
2020,04,15,04,52,10.40
2020,04,15,04,53,10.40
2020,04,15,04,54,10.40
2020,04,15,04,55,10.40
2020,04,15,04,56,10.40
2020,04,15,04,57,10.40
2020,04,15,04,58,10.40
2020,04,15,04,59,10.30
2020,04,15,05,00,10.30
2020,04,15,05,01,10.30
2020,04,15,05,02,10.30
2020,04,15,05,03,10.30
2020,04,15,05,04,10.30
2020,04,15,05,05,10.30
2020,04,15,05,06,10.30
2020,04,15,05,07,10.30
2020,04,15,05,08,10.30
2020,04,15,05,09,10.30
2020,04,15,05,10,10.40
2020,04,15,05,11,10.40
2020,04,15,05,12,10.40
2020,04,15,05,13,10.30
2020,04,15,05,14,10.30
2020,04,15,05,15,10.30
2020,04,15,05,16,10.30
2020,04,15,05,17,10.30
2020,04,15,05,18,10.30
2020,04,15,05,19,10.30
2020,04,15,05,20,10.20
2020,04,15,05,21,10.20
2020,04,15,05,22,10.20
2020,04,15,05,23,10.20
2020,04,15,05,24,10.20
2020,04,15,05,25,10.20
2020,04,15,05,26,10.20
2020,04,15,05,27,10.20
2020,04,15,05,28,10.20
2020,04,15,05,29,10.30
2020,04,15,05,30,10.30
2020,04,15,05,31,10.20
2020,04,15,05,32,10.20
2020,04,15,05,33,10.20
2020,04,15,05,34,10.20
2020,04,15,05,35,10.20
2020,04,15,05,36,10.10
2020,04,15,05,37,10.10
2020,04,15,05,38,10.10
2020,04,15,05,39,10.10
2020,04,15,05,40,10.10
2020,04,15,05,41,10.10
2020,04,15,05,42,10.10
2020,04,15,05,43,10.10
2020,04,15,05,44,10.00
2020,04,15,05,45,10.10
2020,04,15,05,46,10.00
2020,04,15,05,47,10.00
2020,04,15,05,48,10.00
2020,04,15,05,49,10.00
2020,04,15,05,50,10.00
2020,04,15,05,51,10.00
2020,04,15,05,52,9.90
2020,04,15,05,53,9.90
2020,04,15,05,54,9.90
2020,04,15,05,55,9.90
2020,04,15,05,56,9.80
2020,04,15,05,57,9.80
2020,04,15,05,58,9.80
2020,04,15,05,59,9.70
2020,04,15,06,00,9.70
2020,04,15,06,01,9.70
2020,04,15,06,02,9.70
2020,04,15,06,03,9.70
2020,04,15,06,04,9.70
2020,04,15,06,05,9.70
2020,04,15,06,06,9.70
2020,04,15,06,07,9.70
2020,04,15,06,08,9.70
2020,04,15,06,09,9.80
2020,04,15,06,10,9.70
2020,04,15,06,11,9.70
2020,04,15,06,12,9.70
2020,04,15,06,13,9.70
2020,04,15,06,14,9.70
2020,04,15,06,15,9.70
2020,04,15,06,16,9.70
2020,04,15,06,17,9.70
2020,04,15,06,18,9.70
2020,04,15,06,19,9.70
2020,04,15,06,20,9.70
2020,04,15,06,21,9.70
2020,04,15,06,22,9.60
2020,04,15,06,23,9.70
2020,04,15,06,24,9.70
2020,04,15,06,25,9.70
2020,04,15,06,26,9.70
2020,04,15,06,27,9.70
2020,04,15,06,28,9.70
2020,04,15,06,29,9.70
2020,04,15,06,30,9.70
2020,04,15,06,31,9.70
2020,04,15,06,32,9.70
2020,04,15,06,33,9.70
2020,04,15,06,34,9.70
2020,04,15,06,35,9.60
2020,04,15,06,36,9.60
2020,04,15,06,37,9.60
2020,04,15,06,38,9.60
2020,04,15,06,39,9.60
2020,04,15,06,40,9.60
2020,04,15,06,41,9.60
2020,04,15,06,42,9.60
2020,04,15,06,43,9.60
2020,04,15,06,44,9.60
2020,04,15,06,45,9.60
2020,04,15,06,46,9.70
2020,04,15,06,47,9.70
2020,04,15,06,48,9.80
2020,04,15,06,49,9.70
2020,04,15,06,50,9.70
2020,04,15,06,51,9.70
2020,04,15,06,52,9.70
2020,04,15,06,53,9.80
2020,04,15,06,54,9.80
2020,04,15,06,55,9.80
2020,04,15,06,56,9.90
2020,04,15,06,57,9.90
2020,04,15,06,58,9.90
2020,04,15,06,59,9.90
2020,04,15,07,00,9.90
2020,04,15,07,01,9.90
2020,04,15,07,02,9.90
2020,04,15,07,03,10.00
2020,04,15,07,04,10.00
2020,04,15,07,05,10.00
2020,04,15,07,06,10.00
2020,04,15,07,07,10.00
2020,04,15,07,08,10.00
2020,04,15,07,09,10.00
2020,04,15,07,10,10.00
2020,04,15,07,11,10.00
2020,04,15,07,12,10.00
2020,04,15,07,13,10.00
2020,04,15,07,14,10.00
2020,04,15,07,15,10.00
2020,04,15,07,16,10.00
2020,04,15,07,17,10.10
2020,04,15,07,18,10.10
2020,04,15,07,19,10.10
2020,04,15,07,20,10.10
2020,04,15,07,21,10.10
2020,04,15,07,22,10.10
2020,04,15,07,23,10.20
2020,04,15,07,24,10.20
2020,04,15,07,25,10.20
2020,04,15,07,26,10.20
2020,04,15,07,27,10.30
2020,04,15,07,28,10.30
2020,04,15,07,29,10.30
2020,04,15,07,30,10.30
2020,04,15,07,31,10.40
2020,04,15,07,32,10.40
2020,04,15,07,33,10.40
2020,04,15,07,34,10.40
2020,04,15,07,35,10.40
2020,04,15,07,36,10.40
2020,04,15,07,37,10.50
2020,04,15,07,38,10.50
2020,04,15,07,39,10.50
2020,04,15,07,40,10.50
2020,04,15,07,41,10.50
2020,04,15,07,42,10.50
2020,04,15,07,43,10.60
2020,04,15,07,44,10.60
2020,04,15,07,45,10.60
2020,04,15,07,46,10.60
2020,04,15,07,47,10.60
2020,04,15,07,48,10.60
2020,04,15,07,49,10.70
2020,04,15,07,50,10.70
2020,04,15,07,51,10.70
2020,04,15,07,52,10.70
2020,04,15,07,53,10.70
2020,04,15,07,54,10.80
2020,04,15,07,55,10.80
2020,04,15,07,56,10.80
2020,04,15,07,57,10.80
2020,04,15,07,58,10.80
2020,04,15,07,59,10.80
2020,04,15,08,00,10.90
2020,04,15,08,01,10.90
2020,04,15,08,02,10.90
2020,04,15,08,03,10.90
2020,04,15,08,04,10.90
2020,04,15,08,05,10.90
2020,04,15,08,06,11.00
2020,04,15,08,07,11.00
2020,04,15,08,08,11.00
2020,04,15,08,09,11.00
2020,04,15,08,10,11.00
2020,04,15,08,11,11.00
2020,04,15,08,12,11.10
2020,04,15,08,13,11.10
2020,04,15,08,14,11.10
2020,04,15,08,15,11.10
2020,04,15,08,16,11.10
2020,04,15,08,17,11.20
2020,04,15,08,18,11.20
2020,04,15,08,19,11.20
2020,04,15,08,20,11.20
2020,04,15,08,21,11.20
2020,04,15,08,22,11.30
2020,04,15,08,23,11.20
2020,04,15,08,24,11.20
2020,04,15,08,25,11.20
2020,04,15,08,26,11.20
2020,04,15,08,27,11.20
2020,04,15,08,28,11.20
2020,04,15,08,29,11.20
2020,04,15,08,30,11.20
2020,04,15,08,31,11.20
2020,04,15,08,32,11.20
2020,04,15,08,33,11.10
2020,04,15,08,34,11.10
2020,04,15,08,35,11.10
2020,04,15,08,36,11.10
2020,04,15,08,37,11.10
2020,04,15,08,38,11.10
2020,04,15,08,39,11.20
2020,04,15,08,40,11.20
2020,04,15,08,41,11.30
2020,04,15,08,42,11.30
2020,04,15,08,43,11.30
2020,04,15,08,44,11.30
2020,04,15,08,45,11.30
2020,04,15,08,46,11.30
2020,04,15,08,47,11.30
2020,04,15,08,48,11.30
2020,04,15,08,49,11.30
2020,04,15,08,50,11.30
2020,04,15,08,51,11.30
2020,04,15,08,52,11.40
2020,04,15,08,53,11.40
2020,04,15,08,54,11.50
2020,04,15,08,55,11.50
2020,04,15,08,56,11.50
2020,04,15,08,57,11.50
2020,04,15,08,58,11.60
2020,04,15,08,59,11.60
2020,04,15,09,00,11.70
2020,04,15,09,01,11.70
2020,04,15,09,02,11.80
2020,04,15,09,03,11.80
2020,04,15,09,04,11.80
2020,04,15,09,05,11.80
2020,04,15,09,06,11.80
2020,04,15,09,07,11.70
2020,04,15,09,08,11.70
2020,04,15,09,09,11.70
2020,04,15,09,10,11.70
2020,04,15,09,11,11.80
2020,04,15,09,12,11.80
2020,04,15,09,13,11.80
2020,04,15,09,14,11.80
2020,04,15,09,15,11.70
2020,04,15,09,16,11.70
2020,04,15,09,17,11.70
2020,04,15,09,18,11.70
2020,04,15,09,19,11.70
2020,04,15,09,20,11.70
2020,04,15,09,21,11.70
2020,04,15,09,22,11.70
2020,04,15,09,23,11.80
2020,04,15,09,24,11.80
2020,04,15,09,25,11.90
2020,04,15,09,26,12.00
2020,04,15,09,27,12.00
2020,04,15,09,28,12.10
2020,04,15,09,29,12.10
2020,04,15,09,30,12.10
2020,04,15,09,31,12.10
2020,04,15,09,32,12.10
2020,04,15,09,33,12.20
2020,04,15,09,34,12.10
2020,04,15,09,35,12.10
2020,04,15,09,36,12.10
2020,04,15,09,37,12.00
2020,04,15,09,38,12.00
2020,04,15,09,39,12.10
2020,04,15,09,40,12.10
2020,04,15,09,41,12.10
2020,04,15,09,42,12.10
2020,04,15,09,43,12.10
2020,04,15,09,44,12.10
2020,04,15,09,45,12.10
2020,04,15,09,46,12.10
2020,04,15,09,47,12.10
2020,04,15,09,48,12.20
2020,04,15,09,49,12.20
2020,04,15,09,50,12.20
2020,04,15,09,51,12.20
2020,04,15,09,52,12.20
2020,04,15,09,53,12.20
2020,04,15,09,54,12.20
2020,04,15,09,55,12.20
2020,04,15,09,56,12.20
2020,04,15,09,57,12.20
2020,04,15,09,58,12.30
2020,04,15,09,59,12.30
2020,04,15,10,00,12.40
2020,04,15,10,01,12.40
2020,04,15,10,02,12.40
2020,04,15,10,03,12.40
2020,04,15,10,04,12.40
2020,04,15,10,05,12.40
2020,04,15,10,06,12.40
2020,04,15,10,07,12.40
2020,04,15,10,08,12.30
2020,04,15,10,09,12.40
2020,04,15,10,10,12.40
2020,04,15,10,11,12.40
2020,04,15,10,12,12.50
2020,04,15,10,13,12.50
2020,04,15,10,14,12.60
2020,04,15,10,15,12.70
2020,04,15,10,16,12.70
2020,04,15,10,17,12.70
2020,04,15,10,18,12.60
2020,04,15,10,19,12.60
2020,04,15,10,20,12.60
2020,04,15,10,21,12.60
2020,04,15,10,22,12.70
2020,04,15,10,23,12.70
2020,04,15,10,24,12.70
2020,04,15,10,25,12.70
2020,04,15,10,26,12.70
2020,04,15,10,27,12.70
2020,04,15,10,28,12.80
2020,04,15,10,29,12.90
2020,04,15,10,30,13.00
2020,04,15,10,31,12.90
2020,04,15,10,32,13.00
2020,04,15,10,33,13.00
2020,04,15,10,34,13.00
2020,04,15,10,35,13.00
2020,04,15,10,36,13.00
2020,04,15,10,37,13.10
2020,04,15,10,38,13.10
2020,04,15,10,39,13.10
2020,04,15,10,40,13.10
2020,04,15,10,41,13.10
2020,04,15,10,42,13.20
2020,04,15,10,43,13.10
2020,04,15,10,44,13.10
2020,04,15,10,45,13.10
2020,04,15,10,46,13.10
2020,04,15,10,47,13.10
2020,04,15,10,48,13.10
2020,04,15,10,49,13.10
2020,04,15,10,50,13.20
2020,04,15,10,51,13.30
2020,04,15,10,52,13.30
2020,04,15,10,53,13.40
2020,04,15,10,54,13.40
2020,04,15,10,55,13.40
2020,04,15,10,56,13.40
2020,04,15,10,57,13.50
2020,04,15,10,58,13.50
2020,04,15,10,59,13.50
2020,04,15,11,00,13.50
2020,04,15,11,01,13.60
2020,04,15,11,02,13.60
2020,04,15,11,03,13.60
2020,04,15,11,04,13.70
2020,04,15,11,05,13.70
2020,04,15,11,06,13.70
2020,04,15,11,07,13.70
2020,04,15,11,08,13.70
2020,04,15,11,09,13.70
2020,04,15,11,10,13.70
2020,04,15,11,11,13.80
2020,04,15,11,12,13.80
2020,04,15,11,13,13.90
2020,04,15,11,14,13.80
2020,04,15,11,15,13.80
2020,04,15,11,16,13.80
2020,04,15,11,17,13.80
2020,04,15,11,18,13.80
2020,04,15,11,19,13.80
2020,04,15,11,20,13.80
2020,04,15,11,21,13.80
2020,04,15,11,22,13.90
2020,04,15,11,23,14.00
2020,04,15,11,24,14.20
2020,04,15,11,25,14.20
2020,04,15,11,26,14.30
2020,04,15,11,27,14.30
2020,04,15,11,28,14.30
2020,04,15,11,29,14.30
2020,04,15,11,30,14.30
2020,04,15,11,31,14.40
2020,04,15,11,32,14.40
2020,04,15,11,33,14.40
2020,04,15,11,34,14.50
2020,04,15,11,35,14.40
2020,04,15,11,36,14.40
2020,04,15,11,37,14.40
2020,04,15,11,38,14.50
2020,04,15,11,39,14.40
2020,04,15,11,40,14.40
2020,04,15,11,41,14.50
2020,04,15,11,42,14.50
2020,04,15,11,43,14.50
2020,04,15,11,44,14.50
2020,04,15,11,45,14.50
2020,04,15,11,46,14.60
2020,04,15,11,47,14.60
2020,04,15,11,48,14.60
2020,04,15,11,49,14.60
2020,04,15,11,50,14.60
2020,04,15,11,51,14.70
2020,04,15,11,52,14.60
2020,04,15,11,53,14.50
2020,04,15,11,54,14.60
2020,04,15,11,55,14.60
2020,04,15,11,56,14.70
2020,04,15,11,57,14.70
2020,04,15,11,58,14.80
2020,04,15,11,59,14.90
2020,04,15,12,00,14.90
2020,04,15,12,01,14.90
2020,04,15,12,02,14.80
2020,04,15,12,03,14.80
2020,04,15,12,04,14.80
2020,04,15,12,05,14.80
2020,04,15,12,06,14.80
2020,04,15,12,07,14.90
2020,04,15,12,08,14.90
2020,04,15,12,09,14.90
2020,04,15,12,10,15.00
2020,04,15,12,11,14.90
2020,04,15,12,12,14.90
2020,04,15,12,13,15.00
2020,04,15,12,14,15.10
2020,04,15,12,15,15.20
2020,04,15,12,16,15.20
2020,04,15,12,17,15.20
2020,04,15,12,18,15.20
2020,04,15,12,19,15.20
2020,04,15,12,20,15.20
2020,04,15,12,21,15.20
2020,04,15,12,22,15.10
2020,04,15,12,23,15.10
2020,04,15,12,24,15.10
2020,04,15,12,25,15.10
2020,04,15,12,26,15.20
2020,04,15,12,27,15.20
2020,04,15,12,28,15.30
2020,04,15,12,29,15.30
2020,04,15,12,30,15.50
2020,04,15,12,31,15.60
2020,04,15,12,32,15.60
2020,04,15,12,33,15.60
2020,04,15,12,34,15.60
2020,04,15,12,35,15.70
2020,04,15,12,36,15.70
2020,04,15,12,37,15.70
2020,04,15,12,38,15.80
2020,04,15,12,39,15.80
2020,04,15,12,40,15.80
2020,04,15,12,41,15.80
2020,04,15,12,42,15.90
2020,04,15,12,43,16.00
2020,04,15,12,44,16.00
2020,04,15,12,45,16.00
2020,04,15,12,46,16.10
2020,04,15,12,47,16.10
2020,04,15,12,48,16.10
2020,04,15,12,49,16.10
2020,04,15,12,50,16.10
2020,04,15,12,51,16.20
2020,04,15,12,52,16.20
2020,04,15,12,53,16.20
2020,04,15,12,54,16.30
2020,04,15,12,55,16.30
2020,04,15,12,56,16.30
2020,04,15,12,57,16.30
2020,04,15,12,58,16.30
2020,04,15,12,59,16.30
2020,04,15,13,00,16.40
2020,04,15,13,01,16.50
2020,04,15,13,02,16.60
2020,04,15,13,03,16.60
2020,04,15,13,04,16.60
2020,04,15,13,05,16.60
2020,04,15,13,06,16.60
2020,04,15,13,07,16.60
2020,04,15,13,08,16.60
2020,04,15,13,09,16.70
2020,04,15,13,10,16.80
2020,04,15,13,11,16.80
2020,04,15,13,12,16.80
2020,04,15,13,13,16.80
2020,04,15,13,14,16.70
2020,04,15,13,15,16.70
2020,04,15,13,16,16.60
2020,04,15,13,17,16.60
2020,04,15,13,18,16.60
2020,04,15,13,19,16.60
2020,04,15,13,20,16.60
2020,04,15,13,21,16.60
2020,04,15,13,22,16.60
2020,04,15,13,23,16.60
2020,04,15,13,24,16.70
2020,04,15,13,25,16.80
2020,04,15,13,26,16.80
2020,04,15,13,27,16.90
2020,04,15,13,28,16.90
2020,04,15,13,29,16.90
2020,04,15,13,30,17.00
2020,04,15,13,31,17.10
2020,04,15,13,32,17.10
2020,04,15,13,33,17.10
2020,04,15,13,34,17.00
2020,04,15,13,35,17.00
2020,04,15,13,36,17.10
2020,04,15,13,37,17.20
2020,04,15,13,38,17.20
2020,04,15,13,39,17.20
2020,04,15,13,40,17.20
2020,04,15,13,41,17.20
2020,04,15,13,42,17.30
2020,04,15,13,43,17.50
2020,04,15,13,44,17.60
2020,04,15,13,45,17.60
2020,04,15,13,46,17.60
2020,04,15,13,47,17.50
2020,04,15,13,48,17.40
2020,04,15,13,49,17.40
2020,04,15,13,50,17.50
2020,04,15,13,51,17.60
2020,04,15,13,52,17.60
2020,04,15,13,53,17.60
2020,04,15,13,54,17.60
2020,04,15,13,55,17.60
2020,04,15,13,56,17.60
2020,04,15,13,57,17.50
2020,04,15,13,58,17.40
2020,04,15,13,59,17.50
2020,04,15,14,00,17.50
2020,04,15,14,01,17.50
2020,04,15,14,02,17.60
2020,04,15,14,03,17.60
2020,04,15,14,04,17.70
2020,04,15,14,05,17.70
2020,04,15,14,06,17.80
2020,04,15,14,07,17.80
2020,04,15,14,08,17.90
2020,04,15,14,09,17.90
2020,04,15,14,10,17.80
2020,04,15,14,11,17.80
2020,04,15,14,12,17.70
2020,04,15,14,13,17.70
2020,04,15,14,14,17.80
2020,04,15,14,15,17.80
2020,04,15,14,16,17.80
2020,04,15,14,17,17.80
2020,04,15,14,18,17.90
2020,04,15,14,19,17.90
2020,04,15,14,20,17.90
2020,04,15,14,21,18.00
2020,04,15,14,22,18.10
2020,04,15,14,23,18.10
2020,04,15,14,24,18.20
2020,04,15,14,25,18.10
2020,04,15,14,26,18.20
2020,04,15,14,27,18.20
2020,04,15,14,28,18.20
2020,04,15,14,29,18.30
2020,04,15,14,30,18.30
2020,04,15,14,31,18.30
2020,04,15,14,32,18.20
2020,04,15,14,33,18.20
2020,04,15,14,34,18.20
2020,04,15,14,35,18.30
2020,04,15,14,36,18.30
2020,04,15,14,37,18.30
2020,04,15,14,38,18.30
2020,04,15,14,39,18.30
2020,04,15,14,40,18.40
2020,04,15,14,41,18.40
2020,04,15,14,42,18.50
2020,04,15,14,43,18.70
2020,04,15,14,44,18.80
2020,04,15,14,45,18.90
2020,04,15,14,46,19.00
2020,04,15,14,47,19.00
2020,04,15,14,48,19.10
2020,04,15,14,49,19.20
2020,04,15,14,50,19.20
2020,04,15,14,51,19.30
2020,04,15,14,52,19.30
2020,04,15,14,53,19.30
2020,04,15,14,54,19.40
2020,04,15,14,55,19.40
2020,04,15,14,56,19.40
2020,04,15,14,57,19.30
2020,04,15,14,58,19.30
2020,04,15,14,59,19.20
2020,04,15,15,00,19.20
2020,04,15,15,01,19.20
2020,04,15,15,02,19.20
2020,04,15,15,03,19.20
2020,04,15,15,04,19.30
2020,04,15,15,05,19.30
2020,04,15,15,06,19.20
2020,04,15,15,07,19.20
2020,04,15,15,08,19.30
2020,04,15,15,09,19.30
2020,04,15,15,10,19.30
2020,04,15,15,11,19.20
2020,04,15,15,12,19.10
2020,04,15,15,13,19.10
2020,04,15,15,14,19.10
2020,04,15,15,15,19.20
2020,04,15,15,16,19.20
2020,04,15,15,17,19.20
2020,04,15,15,18,19.30
2020,04,15,15,19,19.30
2020,04,15,15,20,19.40
2020,04,15,15,21,19.50
2020,04,15,15,22,19.60
2020,04,15,15,23,19.50
2020,04,15,15,24,19.40
2020,04,15,15,25,19.40
2020,04,15,15,26,19.40
2020,04,15,15,27,19.40
2020,04,15,15,28,19.50
2020,04,15,15,29,19.50
2020,04,15,15,30,19.60
2020,04,15,15,31,19.60
2020,04,15,15,32,19.60
2020,04,15,15,33,19.60
2020,04,15,15,34,19.70
2020,04,15,15,35,19.70
2020,04,15,15,36,19.70
2020,04,15,15,37,19.80
2020,04,15,15,38,19.80
2020,04,15,15,39,19.90
2020,04,15,15,40,19.80
2020,04,15,15,41,19.70
2020,04,15,15,42,19.70
2020,04,15,15,43,19.70
2020,04,15,15,44,19.70
2020,04,15,15,45,19.60
2020,04,15,15,46,19.70
2020,04,15,15,47,19.70
2020,04,15,15,48,19.90
2020,04,15,15,49,19.90
2020,04,15,15,50,19.90
2020,04,15,15,51,19.90
2020,04,15,15,52,19.90
2020,04,15,15,53,20.00
2020,04,15,15,54,20.10
2020,04,15,15,55,20.10
2020,04,15,15,56,20.10
2020,04,15,15,57,20.10
2020,04,15,15,58,20.20
2020,04,15,15,59,20.30
2020,04,15,16,00,20.30
2020,04,15,16,01,20.30
2020,04,15,16,02,20.20
2020,04,15,16,03,20.20
2020,04,15,16,04,20.20
2020,04,15,16,05,20.20
2020,04,15,16,06,20.20
2020,04,15,16,07,20.20
2020,04,15,16,08,20.30
2020,04,15,16,09,20.30
2020,04,15,16,10,20.30
2020,04,15,16,11,20.30
2020,04,15,16,12,20.30
2020,04,15,16,13,20.30
2020,04,15,16,14,20.30
2020,04,15,16,15,20.20
2020,04,15,16,16,20.20
2020,04,15,16,17,20.20
2020,04,15,16,18,20.20
2020,04,15,16,19,20.30
2020,04,15,16,20,20.30
2020,04,15,16,21,20.30
2020,04,15,16,22,20.20
2020,04,15,16,23,20.10
2020,04,15,16,24,19.90
2020,04,15,16,25,19.90
2020,04,15,16,26,19.90
2020,04,15,16,27,20.00
2020,04,15,16,28,19.90
2020,04,15,16,29,19.90
2020,04,15,16,30,20.00
2020,04,15,16,31,20.00
2020,04,15,16,32,20.00
2020,04,15,16,33,19.90
2020,04,15,16,34,19.90
2020,04,15,16,35,19.90
2020,04,15,16,36,19.90
2020,04,15,16,37,19.90
2020,04,15,16,38,19.90
2020,04,15,16,39,19.90
2020,04,15,16,40,20.00
2020,04,15,16,41,20.00
2020,04,15,16,42,20.10
2020,04,15,16,43,20.10
2020,04,15,16,44,20.20
2020,04,15,16,45,20.20
2020,04,15,16,46,20.30
2020,04,15,16,47,20.30
2020,04,15,16,48,20.30
2020,04,15,16,49,20.30
2020,04,15,16,50,20.30
2020,04,15,16,51,20.30
2020,04,15,16,52,20.40
2020,04,15,16,53,20.40
2020,04,15,16,54,20.50
2020,04,15,16,55,20.50
2020,04,15,16,56,20.50
2020,04,15,16,57,20.50
2020,04,15,16,58,20.50
2020,04,15,16,59,20.60
2020,04,15,17,00,20.60
2020,04,15,17,01,20.60
2020,04,15,17,02,20.60
2020,04,15,17,03,20.50
2020,04,15,17,04,20.50
2020,04,15,17,05,20.60
2020,04,15,17,06,20.60
2020,04,15,17,07,20.60
2020,04,15,17,08,20.60
2020,04,15,17,09,20.50
2020,04,15,17,10,20.50
2020,04,15,17,11,20.40
2020,04,15,17,12,20.40
2020,04,15,17,13,20.40
2020,04,15,17,14,20.50
2020,04,15,17,15,20.50
2020,04,15,17,16,20.50
2020,04,15,17,17,20.40
2020,04,15,17,18,20.40
2020,04,15,17,19,20.40
2020,04,15,17,20,20.40
2020,04,15,17,21,20.40
2020,04,15,17,22,20.40